{"data":{"norad_id":81864,"epoch":"2026-09-14T22:03:56.708640Z","epoch_age_seconds":496628,"freshness":"STALE","line1":"1 81864U          26257.91940635  .00000389  00000+0  17407-3 0  9997","line2":"2 81864  65.6714 140.6932 0771743 254.6472  96.8083 13.33085274587642","mean_motion":13.33085274,"eccentricity":0.0771743,"inclination_deg":65.6714,"raan_deg":140.6932,"arg_perigee_deg":254.6472,"mean_anomaly_deg":96.8083,"bstar":0.00017407,"rev_number":58764,"period_min":108.02009654485,"perigee_km":555.31587524665,"apogee_km":1714.9809609289,"semimajor_km":7513.2854180878,"source":"CELESTRAK","updated_at":"2026-09-20T09:00:32.397121Z"}}